Weather History for Borger, TX

Change the Weather History Date:

Thursday, February 21, 2013

  Actual Average Record
Temperature  
Mean Temperature 26 °F 43 °F  
Max Temperature 34 °F 56 °F 80 °F (1996)
Min Temperature 17 °F 31 °F 7 °F (1978)
Degree Days  
Heating Degree Days 39 22  
Month to date heating degree days 470 495  
Since 1 July heating degree days 2506 2847  
Cooling Degree Days 0 0  
Month to date cooling degree days 0 0  
Year to date cooling degree days 0 0  
Moisture  
Dew Point 26 °F    
Average Humidity 84    
Maximum Humidity 100    
Minimum Humidity 68    
Precipitation  
Precipitation 0.42 in 0.02 in 1.38 in (1971)
Month to date precipitation 1.10 0.49  
Year to date precipitation 1.91 1.08  
Snow  
Snow 2.50 in - 15.00 in (1971)
Month to date snowfall 7.2  
Since 1 July snowfall 10.9  
Snow Depth 2.00 in    
Sea Level Pressure  
Sea Level Pressure 29.70 in    
Wind  
Wind Speed 8 mph (NE)    
Max Wind Speed 23 mph    
Max Gust Speed 29 mph    
Visibility 5 miles    
Events Fog , Rain , Snow    
T = Trace of Precipitation, MM = Missing Value Source: NWS Daily Summary

Daily Weather History Graph

Daily Weather History Graph

Search for Another Location

Airport:

Trip Planner

Search our weather history database for the weather conditions in past years. The results will help you decide how hot, cold, wet, or windy it might be!

Date:

Astronomy

Feb. 21, 2013 Rise Set
Actual Time 7:25 AM CST 6:33 PM CST
Civil Twilight 6:59 AM CST 6:59 PM CST
Nautical Twilight 6:29 AM CST 7:29 PM CST
Astronomical Twilight 6:00 AM CST 7:58 PM CST
Moon 2:55 PM CST (2/21) 4:25 AM CST (2/21)
Length of Visible Light 12h 00m
Length of Day
11h 08m
Waxing Gibbous, 84% of the Moon is Illuminated
Feb 21
Waxing Gibbous
Feb 25
Full
Mar 4
Last Quarter
Mar 11
New
Mar 19
First Quarter

Hourly Weather History & Observations

Time (CST) Temp. Windchill Dew Point Humidity Pressure Visibility Wind Dir Wind Speed Gust Speed Precip Events Conditions
12:51 AM 33.1 °F 25.5 °F 30.9 °F 92% 29.72 in 5.0 mi East 9.2 mph - 0.09 in Snow Light Snow
12:56 AM 33.8 °F 26.4 °F 30.2 °F 87% 29.70 in 1.8 mi East 9.2 mph - 0.01 in Snow Light Snow
1:13 AM 33.8 °F 27.0 °F 30.2 °F 87% 29.71 in 0.8 mi East 8.1 mph - 0.05 in Snow Light Snow
1:51 AM 32.0 °F 23.6 °F 30.9 °F 96% 29.73 in 0.8 mi ESE 10.4 mph - 0.10 in Snow Light Snow
2:29 AM 32.0 °F 24.8 °F 30.2 °F 93% 29.70 in 0.5 mi SE 8.1 mph 18.4 mph 0.06 in Fog , Snow Snow
2:49 AM 30.2 °F 21.9 °F 30.2 °F 100% 29.68 in 2.0 mi ESE 9.2 mph - 0.08 in Snow Light Snow
2:51 AM 30.9 °F 22.8 °F 30.0 °F 96% 29.71 in 2.0 mi ESE 9.2 mph - 0.08 in Snow Light Snow
2:56 AM 30.2 °F 22.6 °F 30.2 °F 100% 29.68 in 1.8 mi East 8.1 mph 16.1 mph 0.00 in Snow Light Snow
3:04 AM 30.2 °F 20.8 °F 30.2 °F 100% 29.66 in 1.2 mi East 11.5 mph - 0.01 in Snow Light Snow
3:12 AM 30.2 °F 19.8 °F 30.2 °F 100% 29.62 in 1.2 mi East 13.8 mph - 0.01 in Snow Light Snow
3:25 AM 30.2 °F 18.5 °F 30.2 °F 100% 29.62 in 3.0 mi ESE 17.3 mph 23.0 mph 0.01 in Snow Light Snow
3:32 AM 30.2 °F 20.2 °F 28.4 °F 93% 29.63 in 8.0 mi ESE 12.7 mph 23.0 mph 0.01 in   Overcast
3:40 AM 30.2 °F 20.2 °F 28.4 °F 93% 29.62 in 10.0 mi ESE 12.7 mph 23.0 mph 0.01 in   Overcast
3:51 AM 30.9 °F 19.8 °F 28.9 °F 92% 29.65 in 7.0 mi ESE 16.1 mph 24.2 mph 0.01 in   Overcast
3:58 AM 30.2 °F 18.9 °F 28.4 °F 93% 29.61 in 2.5 mi ESE 16.1 mph 28.8 mph 0.00 in   Overcast
4:01 AM 30.2 °F 19.3 °F 28.4 °F 93% 29.60 in 3.0 mi ESE 15.0 mph 28.8 mph 0.00 in Rain Light Freezing Rain
4:16 AM 30.2 °F 20.8 °F 28.4 °F 93% 29.61 in 10.0 mi ESE 11.5 mph 19.6 mph 0.00 in Rain Light Freezing Rain
4:30 AM 30.2 °F 21.3 °F 28.4 °F 93% 29.61 in 10.0 mi ESE 10.4 mph 18.4 mph 0.00 in   Overcast
4:51 AM 30.9 °F 21.7 °F 28.0 °F 89% 29.62 in 10.0 mi East 11.5 mph 21.9 mph 0.00 in   Overcast
5:30 AM 30.2 °F 20.8 °F 28.4 °F 93% 29.60 in 10.0 mi ESE 11.5 mph 23.0 mph 0.01 in Rain Light Freezing Rain
5:46 AM 30.2 °F 19.3 °F 28.4 °F 93% 29.59 in 10.0 mi ESE 15.0 mph 19.6 mph 0.01 in   Overcast
5:51 AM 30.9 °F 24.3 °F 28.0 °F 89% 29.60 in 10.0 mi East 6.9 mph 19.6 mph 0.01 in   Overcast
6:51 AM 30.0 °F 24.1 °F 28.0 °F 92% 29.58 in 10.0 mi ESE 5.8 mph - N/A   Overcast
7:48 AM 30.2 °F 24.3 °F 28.4 °F 93% 29.60 in 1.5 mi SE 5.8 mph - 0.03 in Snow Light Snow
7:51 AM 30.9 °F 26.2 °F 28.0 °F 89% 29.63 in 1.0 mi SSE 4.6 mph - 0.03 in Snow Light Snow
7:58 AM 30.2 °F - 28.4 °F 93% 29.61 in 0.5 mi Calm Calm - 0.01 in Fog , Snow Light Snow
8:15 AM 30.2 °F 26.7 °F 28.4 °F 93% 29.63 in 0.2 mi NW 3.5 mph - 0.04 in Fog , Snow Snow
8:32 AM 30.2 °F 26.7 °F 28.4 °F 93% 29.63 in 0.8 mi North 3.5 mph - 0.06 in Snow Light Snow
8:34 AM 30.2 °F 25.4 °F 28.4 °F 93% 29.63 in 1.0 mi North 4.6 mph - 0.07 in Snow Light Snow
8:51 AM 30.0 °F 26.5 °F 28.9 °F 96% 29.65 in 1.5 mi Variable 3.5 mph - 0.07 in Snow Light Snow
9:51 AM 32.0 °F 28.7 °F 28.9 °F 88% 29.65 in 1.5 mi East 3.5 mph - 0.02 in Snow Light Snow
10:15 AM 32.0 °F 26.4 °F 28.4 °F 87% 29.62 in 1.0 mi NE 5.8 mph - 0.01 in Snow Light Snow
10:47 AM 30.2 °F 23.4 °F 28.4 °F 93% 29.63 in 2.0 mi NNE 6.9 mph - 0.01 in Snow Light Snow
10:51 AM 30.9 °F 24.3 °F 28.9 °F 92% 29.66 in 2.5 mi NE 6.9 mph - 0.01 in Snow Light Snow
10:55 AM 30.2 °F 23.4 °F 28.4 °F 93% 29.63 in 3.0 mi NNE 6.9 mph - 0.00 in   Overcast
11:02 AM 30.2 °F 23.4 °F 28.4 °F 93% 29.64 in 3.0 mi NNE 6.9 mph - 0.00 in   Overcast
11:12 AM 30.2 °F 23.4 °F 28.4 °F 93% 29.64 in 2.5 mi NNE 6.9 mph - 0.00 in   Overcast
11:23 AM 30.2 °F 23.4 °F 30.2 °F 100% 29.65 in 3.0 mi North 6.9 mph - 0.00 in   Overcast
11:32 AM 32.0 °F 24.8 °F 30.2 °F 93% 29.66 in 2.5 mi North 8.1 mph - 0.00 in Snow Light Snow
11:38 AM 32.0 °F 23.6 °F 30.2 °F 93% 29.66 in 1.8 mi North 10.4 mph - 0.00 in Snow Light Snow
11:51 AM 32.0 °F 23.6 °F 28.9 °F 88% 29.70 in 1.2 mi North 10.4 mph - 0.00 in Snow Light Snow
11:56 AM 33.8 °F 25.8 °F 28.4 °F 81% 29.67 in 2.0 mi North 10.4 mph - 0.00 in Snow Light Snow
12:10 PM 30.2 °F 18.5 °F 26.6 °F 86% 29.68 in 1.0 mi North 17.3 mph 24.2 mph 0.00 in Snow Light Snow
12:33 PM 28.4 °F 16.6 °F 24.8 °F 86% 29.70 in 0.5 mi North 16.1 mph - 0.01 in Fog , Snow Snow
12:48 PM 28.4 °F 18.5 °F 24.8 °F 86% 29.71 in 1.0 mi North 11.5 mph - 0.01 in Snow Light Snow
1:02 PM 28.4 °F 15.8 °F 23.0 °F 80% 29.71 in 3.0 mi North 18.4 mph - 0.00 in Snow Light Snow
1:41 PM 28.4 °F 15.8 °F 21.2 °F 74% 29.73 in 10.0 mi North 18.4 mph - 0.00 in   Mostly Cloudy
1:51 PM 27.0 °F 14.7 °F 19.9 °F 75% 29.78 in 10.0 mi North 16.1 mph - 0.00 in   Mostly Cloudy
2:35 PM 26.6 °F 14.3 °F 17.6 °F 69% 29.75 in 10.0 mi North 16.1 mph - 0.00 in   Overcast
2:51 PM 26.1 °F 14.0 °F 19.0 °F 75% 29.82 in 10.0 mi NNW 15.0 mph - 0.00 in   Mostly Cloudy
3:51 PM 26.1 °F 14.5 °F 18.0 °F 71% 29.85 in 10.0 mi NNW 13.8 mph 20.7 mph 0.00 in   Partly Cloudy
4:51 PM 26.1 °F 15.6 °F 17.1 °F 69% 29.87 in 10.0 mi NNW 11.5 mph - N/A   Partly Cloudy
5:51 PM 25.0 °F 14.8 °F 17.1 °F 72% 29.89 in 10.0 mi NNW 10.4 mph - N/A   Scattered Clouds
6:51 PM 21.9 °F 14.5 °F 16.0 °F 78% 29.92 in 10.0 mi North 5.8 mph - N/A   Clear
7:51 PM 21.0 °F 13.4 °F 15.1 °F 78% 29.96 in 10.0 mi NNW 5.8 mph - N/A   Scattered Clouds
9:51 PM 18.0 °F 9.8 °F 12.9 °F 81% 30.01 in 10.0 mi WNW 5.8 mph - N/A   Clear
10:51 PM 19.9 °F 14.9 °F 12.9 °F 74% 30.02 in 10.0 mi NNW 3.5 mph - N/A   Scattered Clouds
11:51 PM 19.0 °F - 12.9 °F 77% 30.03 in 10.0 mi Calm Calm - N/A   Clear